Year,Month,Day,Hour,Minute,Value (Times are PST for windspeed in km/hr)
2008,07,28,00,00,12.00
2008,07,28,00,01,16.50
2008,07,28,00,02,16.80
2008,07,28,00,03,10.00
2008,07,28,00,04,13.50
2008,07,28,00,05,12.60
2008,07,28,00,06,16.10
2008,07,28,00,07,12.80
2008,07,28,00,08,15.40
2008,07,28,00,09,12.40
2008,07,28,00,10,11.60
2008,07,28,00,11,13.90
2008,07,28,00,12,13.00
2008,07,28,00,13,15.00
2008,07,28,00,14,17.60
2008,07,28,00,15,17.70
2008,07,28,00,16,16.70
2008,07,28,00,17,17.90
2008,07,28,00,18,13.50
2008,07,28,00,19,18.40
2008,07,28,00,20,13.00
2008,07,28,00,21,12.60
2008,07,28,00,22,13.50
2008,07,28,00,23,11.30
2008,07,28,00,24,13.70
2008,07,28,00,25,15.50
2008,07,28,00,26,15.50
2008,07,28,00,27,11.20
2008,07,28,00,28,11.10
2008,07,28,00,29,9.70
2008,07,28,00,30,13.80
2008,07,28,00,31,9.10
2008,07,28,00,32,9.10
2008,07,28,00,33,13.70
2008,07,28,00,34,10.00
2008,07,28,00,35,13.90
2008,07,28,00,36,11.10
2008,07,28,00,37,11.80
2008,07,28,00,38,9.70
2008,07,28,00,39,11.70
2008,07,28,00,40,10.10
2008,07,28,00,41,12.00
2008,07,28,00,42,10.30
2008,07,28,00,43,10.50
2008,07,28,00,44,9.60
2008,07,28,00,45,15.80
2008,07,28,00,46,11.20
2008,07,28,00,47,16.90
2008,07,28,00,48,14.70
2008,07,28,00,49,11.80
2008,07,28,00,50,15.60
2008,07,28,00,51,15.50
2008,07,28,00,52,10.80
2008,07,28,00,53,10.80
2008,07,28,00,54,9.80
2008,07,28,00,55,11.90
2008,07,28,00,56,16.60
2008,07,28,00,57,10.30
2008,07,28,00,58,11.60
2008,07,28,00,59,11.50
2008,07,28,01,00,8.90
2008,07,28,01,01,14.50
2008,07,28,01,02,8.10
2008,07,28,01,03,12.20
2008,07,28,01,04,15.10
2008,07,28,01,05,9.20
2008,07,28,01,06,8.90
2008,07,28,01,07,10.70
2008,07,28,01,08,9.00
2008,07,28,01,09,11.50
2008,07,28,01,10,6.80
2008,07,28,01,11,9.10
2008,07,28,01,12,9.60
2008,07,28,01,13,8.10
2008,07,28,01,14,6.80
2008,07,28,01,15,10.70
2008,07,28,01,16,8.20
2008,07,28,01,17,9.90
2008,07,28,01,18,6.70
2008,07,28,01,19,7.40
2008,07,28,01,20,7.90
2008,07,28,01,21,5.20
2008,07,28,01,22,8.50
2008,07,28,01,23,7.80
2008,07,28,01,24,7.40
2008,07,28,01,25,7.80
2008,07,28,01,26,7.50
2008,07,28,01,27,7.90
2008,07,28,01,28,8.50
2008,07,28,01,29,9.50
2008,07,28,01,30,8.50
2008,07,28,01,31,12.60
2008,07,28,01,32,10.40
2008,07,28,01,33,10.20
2008,07,28,01,34,7.30
2008,07,28,01,35,6.70
2008,07,28,01,36,7.90
2008,07,28,01,37,5.00
2008,07,28,01,38,5.20
2008,07,28,01,39,6.30
2008,07,28,01,40,5.40
2008,07,28,01,41,6.40
2008,07,28,01,42,5.70
2008,07,28,01,43,6.50
2008,07,28,01,44,7.40
2008,07,28,01,45,7.00
2008,07,28,01,46,7.90
2008,07,28,01,47,7.50
2008,07,28,01,48,5.90
2008,07,28,01,49,5.20
2008,07,28,01,50,8.00
2008,07,28,01,51,9.10
2008,07,28,01,52,7.00
2008,07,28,01,53,7.80
2008,07,28,01,54,7.60
2008,07,28,01,55,8.10
2008,07,28,01,56,6.10
2008,07,28,01,57,6.20
2008,07,28,01,58,6.70
2008,07,28,01,59,7.60
2008,07,28,02,00,5.70
2008,07,28,02,01,6.50
2008,07,28,02,02,6.10
2008,07,28,02,03,5.90
2008,07,28,02,04,6.10
2008,07,28,02,05,5.80
2008,07,28,02,06,7.50
2008,07,28,02,07,6.80
2008,07,28,02,08,6.80
2008,07,28,02,09,5.30
2008,07,28,02,10,7.20
2008,07,28,02,11,7.40
2008,07,28,02,12,7.10
2008,07,28,02,13,5.80
2008,07,28,02,14,7.30
2008,07,28,02,15,6.00
2008,07,28,02,16,6.40
2008,07,28,02,17,6.20
2008,07,28,02,18,5.80
2008,07,28,02,19,5.90
2008,07,28,02,20,6.10
2008,07,28,02,21,5.60
2008,07,28,02,22,3.50
2008,07,28,02,23,3.30
2008,07,28,02,24,4.10
2008,07,28,02,25,3.90
2008,07,28,02,26,2.60
2008,07,28,02,27,3.50
2008,07,28,02,28,4.50
2008,07,28,02,29,5.10
2008,07,28,02,30,4.90
2008,07,28,02,31,6.40
2008,07,28,02,32,6.70
2008,07,28,02,33,6.20
2008,07,28,02,34,6.10
2008,07,28,02,35,5.30
2008,07,28,02,36,5.30
2008,07,28,02,37,6.10
2008,07,28,02,38,5.60
2008,07,28,02,39,6.00
2008,07,28,02,40,7.00
2008,07,28,02,41,5.30
2008,07,28,02,42,4.30
2008,07,28,02,43,2.70
2008,07,28,02,44,3.10
2008,07,28,02,45,4.70
2008,07,28,02,46,4.70
2008,07,28,02,47,4.20
2008,07,28,02,48,4.10
2008,07,28,02,49,5.90
2008,07,28,02,50,4.20
2008,07,28,02,51,5.40
2008,07,28,02,52,5.00
2008,07,28,02,53,6.20
2008,07,28,02,54,5.30
2008,07,28,02,55,6.80
2008,07,28,02,56,5.60
2008,07,28,02,57,5.60
2008,07,28,02,58,5.90
2008,07,28,02,59,7.10
2008,07,28,03,00,6.40
2008,07,28,03,01,5.90
2008,07,28,03,02,4.60
2008,07,28,03,03,6.00
2008,07,28,03,04,5.40
2008,07,28,03,05,4.70
2008,07,28,03,06,7.40
2008,07,28,03,07,4.70
2008,07,28,03,08,4.00
2008,07,28,03,09,4.00
2008,07,28,03,10,2.70
2008,07,28,03,11,2.60
2008,07,28,03,12,3.70
2008,07,28,03,13,3.00
2008,07,28,03,14,2.90
2008,07,28,03,15,3.10
2008,07,28,03,16,3.90
2008,07,28,03,17,3.20
2008,07,28,03,18,3.00
2008,07,28,03,19,1.10
2008,07,28,03,20,3.10
2008,07,28,03,21,1.50
2008,07,28,03,22,2.00
2008,07,28,03,23,2.30
2008,07,28,03,24,1.60
2008,07,28,03,25,3.00
2008,07,28,03,26,2.60
2008,07,28,03,27,2.50
2008,07,28,03,28,2.60
2008,07,28,03,29,4.40
2008,07,28,03,30,3.20
2008,07,28,03,31,4.10
2008,07,28,03,32,3.50
2008,07,28,03,33,2.80
2008,07,28,03,34,2.60
2008,07,28,03,35,2.90
2008,07,28,03,36,3.30
2008,07,28,03,37,3.20
2008,07,28,03,38,2.90
2008,07,28,03,39,4.90
2008,07,28,03,40,5.50
2008,07,28,03,41,4.30
2008,07,28,03,42,3.90
2008,07,28,03,43,4.20
2008,07,28,03,44,5.20
2008,07,28,03,45,4.90
2008,07,28,03,46,4.30
2008,07,28,03,47,3.80
2008,07,28,03,48,5.00
2008,07,28,03,49,4.60
2008,07,28,03,50,4.20
2008,07,28,03,51,4.80
2008,07,28,03,52,5.60
2008,07,28,03,53,5.50
2008,07,28,03,54,5.60
2008,07,28,03,55,3.90
2008,07,28,03,56,4.60
2008,07,28,03,57,5.20
2008,07,28,03,58,5.60
2008,07,28,03,59,5.80
2008,07,28,04,00,6.30
2008,07,28,04,01,4.70
2008,07,28,04,02,3.50
2008,07,28,04,03,2.40
2008,07,28,04,04,4.10
2008,07,28,04,05,4.10
2008,07,28,04,06,4.30
2008,07,28,04,07,4.00
2008,07,28,04,08,3.80
2008,07,28,04,09,3.50
2008,07,28,04,10,4.80
2008,07,28,04,11,5.90
2008,07,28,04,12,4.90
2008,07,28,04,13,3.00
2008,07,28,04,14,2.20
2008,07,28,04,15,3.10
2008,07,28,04,16,5.50
2008,07,28,04,17,5.00
2008,07,28,04,18,4.70
2008,07,28,04,19,3.40
2008,07,28,04,20,5.20
2008,07,28,04,21,4.70
2008,07,28,04,22,4.90
2008,07,28,04,23,5.70
2008,07,28,04,24,5.60
2008,07,28,04,25,1.40
2008,07,28,04,26,4.30
2008,07,28,04,27,3.60
2008,07,28,04,28,3.90
2008,07,28,04,29,3.70
2008,07,28,04,30,3.80
2008,07,28,04,31,2.90
2008,07,28,04,32,4.40
2008,07,28,04,33,2.60
2008,07,28,04,34,4.50
2008,07,28,04,35,5.30
2008,07,28,04,36,6.10
2008,07,28,04,37,5.80
2008,07,28,04,38,6.80
2008,07,28,04,39,6.10
2008,07,28,04,40,5.70
2008,07,28,04,41,4.30
2008,07,28,04,42,4.70
2008,07,28,04,43,5.30
2008,07,28,04,44,5.90
2008,07,28,04,45,5.40
2008,07,28,04,46,6.20
2008,07,28,04,47,4.90
2008,07,28,04,48,4.70
2008,07,28,04,49,3.50
2008,07,28,04,50,3.30
2008,07,28,04,51,0.40
2008,07,28,04,52,2.20
2008,07,28,04,53,4.10
2008,07,28,04,54,3.50
2008,07,28,04,55,5.50
2008,07,28,04,56,4.70
2008,07,28,04,57,4.50
2008,07,28,04,58,2.50
2008,07,28,04,59,3.90
2008,07,28,05,00,3.90
2008,07,28,05,01,3.10
2008,07,28,05,02,3.70
2008,07,28,05,03,4.50
2008,07,28,05,04,4.60
2008,07,28,05,05,3.30
2008,07,28,05,06,1.60
2008,07,28,05,07,0.20
2008,07,28,05,08,1.40
2008,07,28,05,09,1.30
2008,07,28,05,10,2.90
2008,07,28,05,11,3.10
2008,07,28,05,12,1.60
2008,07,28,05,13,1.40
2008,07,28,05,14,0.40
2008,07,28,05,15,0.10
2008,07,28,05,16,1.80
2008,07,28,05,17,3.70
2008,07,28,05,18,3.30
2008,07,28,05,19,3.20
2008,07,28,05,20,1.40
2008,07,28,05,21,1.40
2008,07,28,05,22,3.60
2008,07,28,05,23,4.50
2008,07,28,05,24,3.70
2008,07,28,05,25,2.80
2008,07,28,05,26,4.20
2008,07,28,05,27,3.10
2008,07,28,05,28,3.70
2008,07,28,05,29,4.30
2008,07,28,05,30,5.60
2008,07,28,05,31,6.00
2008,07,28,05,32,5.70
2008,07,28,05,33,5.70
2008,07,28,05,34,5.00
2008,07,28,05,35,5.10
2008,07,28,05,36,3.90
2008,07,28,05,37,3.50
2008,07,28,05,38,4.40
2008,07,28,05,39,4.10
2008,07,28,05,40,4.80
2008,07,28,05,41,3.40
2008,07,28,05,42,4.60
2008,07,28,05,43,4.70
2008,07,28,05,44,4.40
2008,07,28,05,45,5.10
2008,07,28,05,46,5.50
2008,07,28,05,47,5.10
2008,07,28,05,48,4.10
2008,07,28,05,49,4.60
2008,07,28,05,50,5.10
2008,07,28,05,51,4.70
2008,07,28,05,52,4.40
2008,07,28,05,53,4.20
2008,07,28,05,54,4.40
2008,07,28,05,55,4.70
2008,07,28,05,56,5.30
2008,07,28,05,57,5.40
2008,07,28,05,58,4.80
2008,07,28,05,59,5.60
2008,07,28,06,00,5.60
2008,07,28,06,01,5.40
2008,07,28,06,02,4.60
2008,07,28,06,03,6.20
2008,07,28,06,04,4.70
2008,07,28,06,05,3.60
2008,07,28,06,06,3.30
2008,07,28,06,07,5.10
2008,07,28,06,08,5.10
2008,07,28,06,09,6.40
2008,07,28,06,10,5.60
2008,07,28,06,11,5.50
2008,07,28,06,12,4.80
2008,07,28,06,13,6.30
2008,07,28,06,14,7.30
2008,07,28,06,15,5.60
2008,07,28,06,16,5.70
2008,07,28,06,17,5.20
2008,07,28,06,18,3.60
2008,07,28,06,19,5.00
2008,07,28,06,20,4.60
2008,07,28,06,21,5.40
2008,07,28,06,22,3.50
2008,07,28,06,23,3.90
2008,07,28,06,24,4.70
2008,07,28,06,25,3.80
2008,07,28,06,26,5.80
2008,07,28,06,27,5.70
2008,07,28,06,28,5.00
2008,07,28,06,29,3.90
2008,07,28,06,30,4.70
2008,07,28,06,31,4.60
2008,07,28,06,32,4.60
2008,07,28,06,33,6.90
2008,07,28,06,34,3.90
2008,07,28,06,35,3.50
2008,07,28,06,36,2.60
2008,07,28,06,37,5.30
2008,07,28,06,38,5.00
2008,07,28,06,39,4.10
2008,07,28,06,40,3.60
2008,07,28,06,41,4.10
2008,07,28,06,42,3.30
2008,07,28,06,43,6.90
2008,07,28,06,44,7.40
2008,07,28,06,45,5.00
2008,07,28,06,46,5.20
2008,07,28,06,47,5.00
2008,07,28,06,48,4.20
2008,07,28,06,49,4.70
2008,07,28,06,50,3.70
2008,07,28,06,51,4.10
2008,07,28,06,52,7.20
2008,07,28,06,53,6.40
2008,07,28,06,54,6.30
2008,07,28,06,55,8.60
2008,07,28,06,56,7.50
2008,07,28,06,57,6.20
2008,07,28,06,58,4.30
2008,07,28,06,59,4.00
2008,07,28,07,00,6.20
2008,07,28,07,01,6.50
2008,07,28,07,02,6.40
2008,07,28,07,03,6.30
2008,07,28,07,04,6.90
2008,07,28,07,05,6.10
2008,07,28,07,06,5.20
2008,07,28,07,07,6.30
2008,07,28,07,08,6.90
2008,07,28,07,09,7.70
2008,07,28,07,10,6.10
2008,07,28,07,11,5.60
2008,07,28,07,12,6.70
2008,07,28,07,13,5.10
2008,07,28,07,14,4.90
2008,07,28,07,15,3.60
2008,07,28,07,16,7.20
2008,07,28,07,17,4.20
2008,07,28,07,18,6.00
2008,07,28,07,19,5.60
2008,07,28,07,20,6.80
2008,07,28,07,21,5.50
2008,07,28,07,22,6.80
2008,07,28,07,23,7.60
2008,07,28,07,24,8.70
2008,07,28,07,25,7.30
2008,07,28,07,26,6.70
2008,07,28,07,27,4.70
2008,07,28,07,28,4.30
2008,07,28,07,29,4.80
2008,07,28,07,30,4.30
2008,07,28,07,31,4.30
2008,07,28,07,32,3.90
2008,07,28,07,33,3.00
2008,07,28,07,34,2.30
2008,07,28,07,35,3.10
2008,07,28,07,36,2.50
2008,07,28,07,37,2.90
2008,07,28,07,38,3.40
2008,07,28,07,39,4.30
2008,07,28,07,40,5.50
2008,07,28,07,41,1.60
2008,07,28,07,42,4.00
2008,07,28,07,43,4.10
2008,07,28,07,44,4.30
2008,07,28,07,45,6.20
2008,07,28,07,46,3.90
2008,07,28,07,47,5.60
2008,07,28,07,48,6.30
2008,07,28,07,49,5.80
2008,07,28,07,50,5.00
2008,07,28,07,51,6.60
2008,07,28,07,52,9.00
2008,07,28,07,53,8.10
2008,07,28,07,54,7.00
2008,07,28,07,55,8.50
2008,07,28,07,56,5.20
2008,07,28,07,57,6.90
2008,07,28,07,58,5.30
2008,07,28,07,59,6.80
2008,07,28,08,00,4.30
2008,07,28,08,01,5.70
2008,07,28,08,02,7.30
2008,07,28,08,03,5.70
2008,07,28,08,04,5.70
2008,07,28,08,05,5.80
2008,07,28,08,06,4.40
2008,07,28,08,07,1.70
2008,07,28,08,08,0.20
2008,07,28,08,09,2.10
2008,07,28,08,10,3.90
2008,07,28,08,11,4.60
2008,07,28,08,12,2.50
2008,07,28,08,13,3.50
2008,07,28,08,14,5.10
2008,07,28,08,15,4.20
2008,07,28,08,16,3.90
2008,07,28,08,17,4.90
2008,07,28,08,18,2.80
2008,07,28,08,19,5.80
2008,07,28,08,20,2.20
2008,07,28,08,21,4.70
2008,07,28,08,22,4.70
2008,07,28,08,23,1.80
2008,07,28,08,24,2.70
2008,07,28,08,25,2.90
2008,07,28,08,26,3.60
2008,07,28,08,27,4.00
2008,07,28,08,28,4.30
2008,07,28,08,29,3.00
2008,07,28,08,30,2.40
2008,07,28,08,31,1.30
2008,07,28,08,32,4.70
2008,07,28,08,33,5.90
2008,07,28,08,34,4.90
2008,07,28,08,35,4.80
2008,07,28,08,36,3.40
2008,07,28,08,37,5.10
2008,07,28,08,38,0.70
2008,07,28,08,39,7.30
2008,07,28,08,40,6.00
2008,07,28,08,41,4.90
2008,07,28,08,42,6.50
2008,07,28,08,43,6.00
2008,07,28,08,44,6.30
2008,07,28,08,45,5.80
2008,07,28,08,46,1.80
2008,07,28,08,47,3.50
2008,07,28,08,48,4.60
2008,07,28,08,49,5.20
2008,07,28,08,50,5.60
2008,07,28,08,51,4.80
2008,07,28,08,52,4.40
2008,07,28,08,53,6.10
2008,07,28,08,54,5.20
2008,07,28,08,55,4.50
2008,07,28,08,56,6.20
2008,07,28,08,57,5.30
2008,07,28,08,58,5.50
2008,07,28,08,59,5.30
2008,07,28,09,00,5.60
2008,07,28,09,01,5.20
2008,07,28,09,02,5.50
2008,07,28,09,03,5.90
2008,07,28,09,04,5.60
2008,07,28,09,05,6.30
2008,07,28,09,06,10.60
2008,07,28,09,07,8.70
2008,07,28,09,08,12.80
2008,07,28,09,09,8.20
2008,07,28,09,10,6.00
2008,07,28,09,11,4.90
2008,07,28,09,12,7.00
2008,07,28,09,13,6.90
2008,07,28,09,14,6.90
2008,07,28,09,15,6.10
2008,07,28,09,16,6.60
2008,07,28,09,17,7.70
2008,07,28,09,18,9.90
2008,07,28,09,19,5.50
2008,07,28,09,20,2.40
2008,07,28,09,21,5.50
2008,07,28,09,22,6.10
2008,07,28,09,23,7.30
2008,07,28,09,24,8.20
2008,07,28,09,25,8.10
2008,07,28,09,26,8.10
2008,07,28,09,27,8.10
2008,07,28,09,28,8.10
2008,07,28,09,29,6.00
2008,07,28,09,30,6.20
2008,07,28,09,31,8.90
2008,07,28,09,32,7.60
2008,07,28,09,33,6.90
2008,07,28,09,34,5.70
2008,07,28,09,35,8.20
2008,07,28,09,36,9.30
2008,07,28,09,37,8.10
2008,07,28,09,38,6.90
2008,07,28,09,39,7.80
2008,07,28,09,40,12.40
2008,07,28,09,41,11.60
2008,07,28,09,42,12.30
2008,07,28,09,43,9.20
2008,07,28,09,44,9.70
2008,07,28,09,45,12.10
2008,07,28,09,46,8.20
2008,07,28,09,47,5.80
2008,07,28,09,48,9.20
2008,07,28,09,49,8.70
2008,07,28,09,50,8.90
2008,07,28,09,51,10.30
2008,07,28,09,52,8.80
2008,07,28,09,53,9.30
2008,07,28,09,54,11.40
2008,07,28,09,55,6.80
2008,07,28,09,56,9.50
2008,07,28,09,57,6.90
2008,07,28,09,58,8.60
2008,07,28,09,59,9.10
2008,07,28,10,00,10.80
2008,07,28,10,01,11.20
2008,07,28,10,02,3.40
2008,07,28,10,03,7.40
2008,07,28,10,04,7.90
2008,07,28,10,05,6.10
2008,07,28,10,06,5.40
2008,07,28,10,07,8.40
2008,07,28,10,08,4.40
2008,07,28,10,09,8.10
2008,07,28,10,10,7.20
2008,07,28,10,11,7.70
2008,07,28,10,12,7.50
2008,07,28,10,13,4.90
2008,07,28,10,14,5.80
2008,07,28,10,15,4.10
2008,07,28,10,16,5.60
2008,07,28,10,17,3.70
2008,07,28,10,18,5.80
2008,07,28,10,19,6.40
2008,07,28,10,20,6.90
2008,07,28,10,21,5.90
2008,07,28,10,22,8.70
2008,07,28,10,23,9.00
2008,07,28,10,24,5.60
2008,07,28,10,25,6.90
2008,07,28,10,26,9.30
2008,07,28,10,27,7.60
2008,07,28,10,28,4.60
2008,07,28,10,29,4.70
2008,07,28,10,30,8.80
2008,07,28,10,31,6.90
2008,07,28,10,32,5.40
2008,07,28,10,33,9.20
2008,07,28,10,34,6.10
2008,07,28,10,35,7.80
2008,07,28,10,36,3.00
2008,07,28,10,37,9.50
2008,07,28,10,38,11.10
2008,07,28,10,39,5.80
2008,07,28,10,40,6.80
2008,07,28,10,41,3.50
2008,07,28,10,42,8.10
2008,07,28,10,43,7.50
2008,07,28,10,44,7.90
2008,07,28,10,45,7.60
2008,07,28,10,46,11.30
2008,07,28,10,47,8.90
2008,07,28,10,48,9.50
2008,07,28,10,49,4.00
2008,07,28,10,50,9.30
2008,07,28,10,51,8.20
2008,07,28,10,52,7.80
2008,07,28,10,53,12.50
2008,07,28,10,54,8.00
2008,07,28,10,55,7.00
2008,07,28,10,56,8.40
2008,07,28,10,57,10.30
2008,07,28,10,58,10.00
2008,07,28,10,59,7.60
2008,07,28,11,00,9.70
2008,07,28,11,01,8.30
2008,07,28,11,02,11.80
2008,07,28,11,03,12.60
2008,07,28,11,04,12.90
2008,07,28,11,05,8.90
2008,07,28,11,06,6.70
2008,07,28,11,07,13.90
2008,07,28,11,08,12.00
2008,07,28,11,09,12.90
2008,07,28,11,10,7.70
2008,07,28,11,11,7.70
2008,07,28,11,12,6.40
2008,07,28,11,13,7.60
2008,07,28,11,14,7.20
2008,07,28,11,15,6.10
2008,07,28,11,16,14.20
2008,07,28,11,17,13.30
2008,07,28,11,18,10.90
2008,07,28,11,19,7.60
2008,07,28,11,20,7.40
2008,07,28,11,21,7.90
2008,07,28,11,22,10.70
2008,07,28,11,23,7.60
2008,07,28,11,24,8.20
2008,07,28,11,25,3.80
2008,07,28,11,26,4.80
2008,07,28,11,27,9.80
2008,07,28,11,28,7.80
2008,07,28,11,29,7.50
2008,07,28,11,30,8.10
2008,07,28,11,31,9.60
2008,07,28,11,32,5.90
2008,07,28,11,33,5.40
2008,07,28,11,34,8.10
2008,07,28,11,35,7.10
2008,07,28,11,36,8.90
2008,07,28,11,37,7.00
2008,07,28,11,38,6.20
2008,07,28,11,39,6.30
2008,07,28,11,40,7.00
2008,07,28,11,41,4.20
2008,07,28,11,42,3.40
2008,07,28,11,43,5.40
2008,07,28,11,44,7.00
2008,07,28,11,45,4.70
2008,07,28,11,46,5.80
2008,07,28,11,47,7.70
2008,07,28,11,48,8.30
2008,07,28,11,49,8.80
2008,07,28,11,50,5.20
2008,07,28,11,51,6.50
2008,07,28,11,52,6.70
2008,07,28,11,53,5.20
2008,07,28,11,54,4.30
2008,07,28,11,55,6.40
2008,07,28,11,56,5.50
2008,07,28,11,57,4.50
2008,07,28,11,58,4.20
2008,07,28,11,59,4.00
2008,07,28,12,00,5.70
2008,07,28,12,01,3.90
2008,07,28,12,02,3.40
2008,07,28,12,03,7.90
2008,07,28,12,04,4.90
2008,07,28,12,05,2.70
2008,07,28,12,06,4.80
2008,07,28,12,07,1.50
2008,07,28,12,08,6.40
2008,07,28,12,09,3.70
2008,07,28,12,10,7.00
2008,07,28,12,11,7.90
2008,07,28,12,12,6.90
2008,07,28,12,13,5.50
2008,07,28,12,14,6.10
2008,07,28,12,15,6.60
2008,07,28,12,16,6.40
2008,07,28,12,17,6.00
2008,07,28,12,18,6.70
2008,07,28,12,19,11.20
2008,07,28,12,20,10.50
2008,07,28,12,21,14.60
2008,07,28,12,22,7.70
2008,07,28,12,23,4.30
2008,07,28,12,24,7.30
2008,07,28,12,25,7.40
2008,07,28,12,26,10.30
2008,07,28,12,27,12.70
2008,07,28,12,28,9.90
2008,07,28,12,29,7.90
2008,07,28,12,30,8.10
2008,07,28,12,31,5.80
2008,07,28,12,32,3.60
2008,07,28,12,33,7.00
2008,07,28,12,34,5.60
2008,07,28,12,35,6.60
2008,07,28,12,36,7.20
2008,07,28,12,37,7.20
2008,07,28,12,38,9.80
2008,07,28,12,39,4.70
2008,07,28,12,40,9.10
2008,07,28,12,41,10.50
2008,07,28,12,42,8.20
2008,07,28,12,43,8.60
2008,07,28,12,44,10.70
2008,07,28,12,45,9.90
2008,07,28,12,46,12.00
2008,07,28,12,47,8.80
2008,07,28,12,48,5.50
2008,07,28,12,49,10.00
2008,07,28,12,50,8.10
2008,07,28,12,51,9.20
2008,07,28,12,52,8.20
2008,07,28,12,53,6.90
2008,07,28,12,54,7.90
2008,07,28,12,55,6.30
2008,07,28,12,56,6.90
2008,07,28,12,57,8.20
2008,07,28,12,58,7.60
2008,07,28,12,59,6.30
2008,07,28,13,00,13.00
2008,07,28,13,01,8.20
2008,07,28,13,02,6.20
2008,07,28,13,03,8.20
2008,07,28,13,04,10.00
2008,07,28,13,05,10.70
2008,07,28,13,06,11.20
2008,07,28,13,07,7.10
2008,07,28,13,08,4.30
2008,07,28,13,09,2.50
2008,07,28,13,10,6.40
2008,07,28,13,11,6.20
2008,07,28,13,12,10.40
2008,07,28,13,13,7.50
2008,07,28,13,14,11.90
2008,07,28,13,15,11.80
2008,07,28,13,16,8.50
2008,07,28,13,17,10.10
2008,07,28,13,18,5.50
2008,07,28,13,19,6.00
2008,07,28,13,20,6.70
2008,07,28,13,21,5.80
2008,07,28,13,22,4.40
2008,07,28,13,23,4.40
2008,07,28,13,24,6.10
2008,07,28,13,25,6.20
2008,07,28,13,26,11.80
2008,07,28,13,27,5.70
2008,07,28,13,28,5.10
2008,07,28,13,29,5.80
2008,07,28,13,30,6.90
2008,07,28,13,31,6.70
2008,07,28,13,32,6.50
2008,07,28,13,33,7.70
2008,07,28,13,34,3.10
2008,07,28,13,35,1.40
2008,07,28,13,36,4.50
2008,07,28,13,37,11.50
2008,07,28,13,38,4.10
2008,07,28,13,39,4.90
2008,07,28,13,40,5.10
2008,07,28,13,41,5.80
2008,07,28,13,42,5.60
2008,07,28,13,43,4.10
2008,07,28,13,44,6.90
2008,07,28,13,45,4.70
2008,07,28,13,46,9.30
2008,07,28,13,47,6.50
2008,07,28,13,48,5.60
2008,07,28,13,49,4.50
2008,07,28,13,50,6.40
2008,07,28,13,51,9.40
2008,07,28,13,52,4.30
2008,07,28,13,53,7.30
2008,07,28,13,54,6.40
2008,07,28,13,55,5.30
2008,07,28,13,56,8.10
2008,07,28,13,57,3.90
2008,07,28,13,58,2.10
2008,07,28,13,59,7.80
2008,07,28,14,00,8.00
2008,07,28,14,01,6.00
2008,07,28,14,02,4.90
2008,07,28,14,03,8.00
2008,07,28,14,04,5.60
2008,07,28,14,05,3.90
2008,07,28,14,06,6.30
2008,07,28,14,07,9.30
2008,07,28,14,08,7.40
2008,07,28,14,09,8.10
2008,07,28,14,10,5.80
2008,07,28,14,11,9.70
2008,07,28,14,12,7.90
2008,07,28,14,13,7.80
2008,07,28,14,14,7.10
2008,07,28,14,15,2.60
2008,07,28,14,16,5.40
2008,07,28,14,17,7.40
2008,07,28,14,18,3.70
2008,07,28,14,19,3.60
2008,07,28,14,20,8.90
2008,07,28,14,21,8.00
2008,07,28,14,22,3.80
2008,07,28,14,23,4.30
2008,07,28,14,24,5.50
2008,07,28,14,25,5.40
2008,07,28,14,26,6.40
2008,07,28,14,27,10.10
2008,07,28,14,28,4.60
2008,07,28,14,29,6.60
2008,07,28,14,30,7.30
2008,07,28,14,31,5.10
2008,07,28,14,32,6.90
2008,07,28,14,33,8.20
2008,07,28,14,34,5.00
2008,07,28,14,35,8.40
2008,07,28,14,36,7.60
2008,07,28,14,37,7.10
2008,07,28,14,38,6.90
2008,07,28,14,39,3.10
2008,07,28,14,40,5.20
2008,07,28,14,41,6.00
2008,07,28,14,42,7.40
2008,07,28,14,43,6.40
2008,07,28,14,44,4.70
2008,07,28,14,45,5.30
2008,07,28,14,46,6.60
2008,07,28,14,47,4.60
2008,07,28,14,48,6.60
2008,07,28,14,49,5.90
2008,07,28,14,50,6.30
2008,07,28,14,51,8.00
2008,07,28,14,52,4.50
2008,07,28,14,53,5.10
2008,07,28,14,54,5.20
2008,07,28,14,55,6.80
2008,07,28,14,56,8.00
2008,07,28,14,57,6.40
2008,07,28,14,58,5.90
2008,07,28,14,59,5.90
2008,07,28,15,00,7.00
2008,07,28,15,01,4.70
2008,07,28,15,02,3.00
2008,07,28,15,03,4.80
2008,07,28,15,04,7.30
2008,07,28,15,05,2.40
2008,07,28,15,06,4.70
2008,07,28,15,07,4.50
2008,07,28,15,08,3.50
2008,07,28,15,09,4.70
2008,07,28,15,10,2.50
2008,07,28,15,11,8.10
2008,07,28,15,12,5.90
2008,07,28,15,13,7.00
2008,07,28,15,14,2.70
2008,07,28,15,15,4.30
2008,07,28,15,16,4.50
2008,07,28,15,17,3.30
2008,07,28,15,18,6.40
2008,07,28,15,19,6.90
2008,07,28,15,20,10.90
2008,07,28,15,21,9.10
2008,07,28,15,22,7.50
2008,07,28,15,23,9.50
2008,07,28,15,24,9.80
2008,07,28,15,25,8.60
2008,07,28,15,26,5.80
2008,07,28,15,27,6.70
2008,07,28,15,28,6.80
2008,07,28,15,29,5.60
2008,07,28,15,30,4.70
2008,07,28,15,31,5.20
2008,07,28,15,32,7.00
2008,07,28,15,33,5.60
2008,07,28,15,34,7.80
2008,07,28,15,35,8.00
2008,07,28,15,36,6.90
2008,07,28,15,37,8.00
2008,07,28,15,38,10.00
2008,07,28,15,39,8.70
2008,07,28,15,40,8.70
2008,07,28,15,41,8.00
2008,07,28,15,42,9.30
2008,07,28,15,43,5.50
2008,07,28,15,44,7.60
2008,07,28,15,45,6.40
2008,07,28,15,46,8.10
2008,07,28,15,47,7.60
2008,07,28,15,48,6.80
2008,07,28,15,49,10.90
2008,07,28,15,50,11.40
2008,07,28,15,51,7.20
2008,07,28,15,52,6.70
2008,07,28,15,53,8.40
2008,07,28,15,54,7.60
2008,07,28,15,55,4.40
2008,07,28,15,56,5.30
2008,07,28,15,57,7.50
2008,07,28,15,58,5.70
2008,07,28,15,59,8.10
2008,07,28,16,00,8.30
2008,07,28,16,01,7.10
2008,07,28,16,02,5.90
2008,07,28,16,03,9.30
2008,07,28,16,04,9.10
2008,07,28,16,05,10.20
2008,07,28,16,06,8.10
2008,07,28,16,07,6.30
2008,07,28,16,08,8.50
2008,07,28,16,09,7.10
2008,07,28,16,10,8.00
2008,07,28,16,11,10.50
2008,07,28,16,12,7.80
2008,07,28,16,13,9.10
2008,07,28,16,14,7.60
2008,07,28,16,15,7.50
2008,07,28,16,16,8.80
2008,07,28,16,17,8.00
2008,07,28,16,18,7.50
2008,07,28,16,19,7.30
2008,07,28,16,20,7.10
2008,07,28,16,21,6.60
2008,07,28,16,22,7.30
2008,07,28,16,23,7.50
2008,07,28,16,24,10.90
2008,07,28,16,25,6.80
2008,07,28,16,26,7.80
2008,07,28,16,27,8.30
2008,07,28,16,28,7.90
2008,07,28,16,29,6.90
2008,07,28,16,30,11.90
2008,07,28,16,31,8.40
2008,07,28,16,32,5.60
2008,07,28,16,33,6.70
2008,07,28,16,34,9.70
2008,07,28,16,35,8.70
2008,07,28,16,36,9.00
2008,07,28,16,37,6.70
2008,07,28,16,38,5.80
2008,07,28,16,39,8.10
2008,07,28,16,40,5.90
2008,07,28,16,41,3.20
2008,07,28,16,42,9.50
2008,07,28,16,43,7.70
2008,07,28,16,44,7.50
2008,07,28,16,45,8.70
2008,07,28,16,46,9.00
2008,07,28,16,47,6.80
2008,07,28,16,48,6.40
2008,07,28,16,49,6.90
2008,07,28,16,50,5.80
2008,07,28,16,51,4.80
2008,07,28,16,52,7.10
2008,07,28,16,53,8.50
2008,07,28,16,54,8.00
2008,07,28,16,55,5.50
2008,07,28,16,56,12.80
2008,07,28,16,57,9.40
2008,07,28,16,58,8.60
2008,07,28,16,59,9.30
2008,07,28,17,00,7.60
2008,07,28,17,01,8.80
2008,07,28,17,02,5.60
2008,07,28,17,03,4.30
2008,07,28,17,04,6.50
2008,07,28,17,05,6.40
2008,07,28,17,06,2.70
2008,07,28,17,07,5.70
2008,07,28,17,08,6.90
2008,07,28,17,09,8.90
2008,07,28,17,10,5.80
2008,07,28,17,11,6.40
2008,07,28,17,12,7.10
2008,07,28,17,13,5.80
2008,07,28,17,14,5.80
2008,07,28,17,15,7.10
2008,07,28,17,16,10.20
2008,07,28,17,17,5.10
2008,07,28,17,18,9.70
2008,07,28,17,19,9.60
2008,07,28,17,20,10.30
2008,07,28,17,21,6.80
2008,07,28,17,22,10.80
2008,07,28,17,23,10.30
2008,07,28,17,24,9.30
2008,07,28,17,25,10.50
2008,07,28,17,26,7.60
2008,07,28,17,27,7.30
2008,07,28,17,28,8.40
2008,07,28,17,29,8.10
2008,07,28,17,30,9.80
2008,07,28,17,31,6.40
2008,07,28,17,32,8.40
2008,07,28,17,33,9.30
2008,07,28,17,34,8.30
2008,07,28,17,35,6.50
2008,07,28,17,36,6.40
2008,07,28,17,37,7.50
2008,07,28,17,38,6.10
2008,07,28,17,39,6.10
2008,07,28,17,40,6.80
2008,07,28,17,41,6.70
2008,07,28,17,42,6.20
2008,07,28,17,43,8.10
2008,07,28,17,44,9.20
2008,07,28,17,45,6.90
2008,07,28,17,46,9.50
2008,07,28,17,47,6.10
2008,07,28,17,48,8.50
2008,07,28,17,49,10.20
2008,07,28,17,50,6.90
2008,07,28,17,51,7.00
2008,07,28,17,52,5.80
2008,07,28,17,53,5.60
2008,07,28,17,54,4.90
2008,07,28,17,55,3.80
2008,07,28,17,56,3.90
2008,07,28,17,57,3.60
2008,07,28,17,58,5.40
2008,07,28,17,59,4.40
2008,07,28,18,00,5.80
2008,07,28,18,01,4.50